Terminal Aerodrome Forecast
Issued by NWS Salt Lake City, UT

Home | Current Version | Previous Version | Text Only | Print | Product List | Glossary On
Versions: 1 2 3 4 5 6 7 8 9 10 11 12 13 14 15 16 17 18 19 20 21 22 23 24 25 26 27 28 29 30 31 32 33 34 35 36 37 38 39 40 41 42 43 44 45 46 47
000
FTUS45 KSLC 181120
TAFSLC
TAF
KSLC 181120Z 1812/1918 15010KT P6SM FEW100 SCT150
     FM181500 18012G19KT P6SM SCT100 BKN150
     FM182200 33007KT P6SM SCT100 BKN150
     FM190200 16007KT P6SM VCSH SCT080 BKN100=

USA.gov is the U.S. government's official web portal to all federal, state and local government web resources and services.